Theta_e
301 293 289 293 297 295 294 295 296 295 295 297 299 293 298 300 302 300 300 300 300 299 298 299 300 302 304 305 305 307 316 314 311 307 303 300 298 298 299 300 301 302 302 301
295 290 295 299 299 295 293 289 290 293 294 295 294 293 293 297 299 300 299 299 299 297 297 297 299 299 301 302 300 302 305 308 308 305 301 300 298 299 299 299 299 299 300 299
289 292 297 297 296 293 292 287 289 291 291 294 293 289 290 293 295 296 299 299 298 297 295 295 296 296 299 297 297 298 299 300 300 300 299 299 299 299 297 296 296 297 298 298
291 294 294 294 294 295 289 294 293 291 290 287 293 287 290 293 293 294 295 296 295 293 293 293 294 296 295 294 296 297 297 297 298 299 300 300 298 294 294 295 295 295 297 296
288 291 291 290 292 297 293 297 294 293 290 287 286 288 293 292 291 293 295 295 294 292 292 292 293 293 294 293 293 294 294 295 297 298 298 297 295 295 295 295 294 294 295 295
291 295 293 293 294 295 298 296 295 294 288 282 286 288 290 289 293 294 294 294 293 292 292 292 293 294 293 294 293 293 293 293 295 295 295 296 295 294 293 294 293 293 293 294
289 290 293 294 291 294 293 292 284 281 281 283 289 287 293 298 298 296 294 293 293 292 291 290 291 291 292 293 293 293 292 291 292 293 292 293 293 293 292 292 292 292 292 291
282 280 289 294 291 288 289 290 284 277 279 284 287 286 292 294 295 299 296 295 294 292 292 291 291 291 292 291 290 290 290 289 291 291 291 291 291 291 290 291 291 291 291 290
282 282 291 291 294 293 288 286 292 285 282 284 287 290 294 290 292 295 295 294 292 291 291 290 290 290 290 290 289 289 289 289 289 289 289 289 289 289 288 289 290 290 291 289
287 281 290 292 294 295 291 295 286 287 279 279 283 286 289 288 289 291 291 292 291 291 290 290 290 290 290 290 289 289 290 289 288 288 288 288 288 288 287 288 288 288 288 288
289 286 285 290 288 288 290 288 289 290 285 281 279 284 292 293 292 291 291 292 291 290 290 289 290 290 290 290 289 288 288 287 287 287 287 287 286 287 287 287 286 287 287 286
290 286 281 285 289 290 290 291 290 284 282 283 282 284 286 287 292 293 292 292 293 291 290 289 289 288 288 288 287 288 288 288 287 287 286 286 286 286 286 285 285 285 285 285
290 284 279 281 286 290 288 290 292 289 288 284 283 284 287 287 289 292 291 290 289 289 288 288 288 287 287 287 287 288 288 287 287 286 286 285 285 285 285 284 284 284 283 283
292 285 282 279 281 287 284 288 290 290 285 284 285 287 285 286 288 290 289 289 288 288 287 287 287 287 287 287 288 288 287 287 287 286 286 285 284 284 284 284 283 283 282 282
286 282 282 283 283 284 286 287 289 288 289 285 286 287 289 287 288 289 290 289 288 287 287 287 287 286 287 287 287 287 287 287 286 285 285 284 284 283 283 283 283 282 282 281
287 280 280 280 283 285 284 287 289 290 289 289 288 287 289 288 289 288 288 288 287 287 287 287 287 287 287 287 287 286 286 285 285 284 284 283 283 282 283 282 282 281 280 280
282 281 280 278 281 282 281 284 287 289 291 291 286 291 286 284 286 287 288 288 288 287 287 287 287 287 287 287 287 286 286 286 284 284 284 283 282 282 282 282 281 281 280 279
280 279 279 278 279 274 281 282 284 289 289 288 288 288 288 287 286 289 290 289 288 288 288 288 288 288 289 288 287 287 286 285 284 283 282 282 281 281 281 280 280 280 280 279
283 281 277 277 278 278 279 280 283 285 287 289 289 286 285 285 287 286 290 291 290 290 290 290 290 290 289 287 287 285 284 283 283 282 282 282 281 280 280 279 280 280 279 279
280 279 280 275 277 274 279 282 283 284 284 289 290 287 285 286 286 292 289 291 291 291 290 289 289 288 288 287 285 284 283 281 281 282 282 282 281 280 280 280 279 279 278 278
276 276 275 276 276 279 282 282 284 282 283 286 289 288 286 286 289 288 289 290 291 290 289 289 288 288 288 285 283 282 282 281 283 282 281 280 280 279 280 279 279 278 277 276
276 277 275 270 274 276 281 280 282 286 284 284 287 287 286 286 286 285 287 287 287 287 287 288 287 286 285 284 283 282 282 283 282 281 280 279 279 278 278 277 277 276 276 275
274 278 278 277 281 282 282 283 284 284 283 284 285 287 287 286 285 285 286 286 287 287 286 285 286 284 283 282 282 282 282 281 280 278 277 278 277 277 277 276 276 275 275 274
274 277 277 277 280 280 283 283 283 284 285 285 285 286 286 286 285 284 285 284 285 284 284 283 283 282 282 281 279 281 281 280 278 278 277 277 275 276 275 276 276 276 276 275
278 277 276 277 280 281 282 282 285 284 284 284 283 284 285 286 283 284 283 283 284 283 282 282 282 282 282 281 280 280 278 277 277 278 277 277 277 276 277 276 276 275 275 276
277 277 277 278 282 282 282 282 284 284 283 284 284 282 282 284 284 283 283 284 283 282 281 280 280 279 281 279 279 279 277 276 277 278 278 278 278 277 276 275 275 276 277 276
Wind_Speed
11 9 18 23 19 12 8 8 12 5 1 5 9 10 13 12 12 13 11 10 9 7 5 5 4 3 4 6 6 6 10 10 8 7 7 7 7 7 8 9 12 12 10 11
8 15 14 12 16 13 10 8 8 2 1 3 10 12 7 9 9 10 12 11 10 9 6 5 5 5 6 6 7 6 10 9 7 5 6 5 6 8 8 8 10 11 12 12
12 3 11 13 16 18 16 6 5 7 5 9 13 5 8 8 5 6 7 7 8 10 9 7 7 6 6 8 8 7 10 11 10 8 8 9 9 7 7 7 7 9 10 11
10 4 12 8 16 17 17 20 12 5 10 5 5 7 9 12 10 10 11 10 9 10 7 8 7 8 7 6 8 8 10 11 9 7 6 7 7 6 5 6 6 7 10 10
6 5 7 16 10 12 4 21 16 9 4 4 4 4 4 14 16 16 14 12 10 10 10 7 11 8 9 6 8 9 12 12 11 11 10 9 11 8 6 6 7 8 8 9
8 0 5 7 10 9 6 12 13 10 2 4 8 5 7 13 23 18 16 14 13 13 12 10 11 9 11 9 9 10 12 12 11 11 12 12 11 8 7 6 5 5 5 5
7 10 2 3 7 8 8 8 5 6 4 1 11 7 2 13 13 21 20 17 15 14 14 13 14 11 10 10 10 10 12 12 10 10 11 11 10 9 8 6 4 5 4 5
8 6 9 7 8 7 14 14 4 5 3 4 3 5 3 3 1 13 19 18 17 18 14 15 12 12 13 11 10 10 11 12 10 8 11 9 8 5 5 6 4 4 4 5
6 7 1 2 3 7 9 10 3 4 2 3 5 2 4 2 3 11 18 20 19 18 16 15 13 9 9 9 10 11 12 12 9 9 9 8 7 7 7 6 5 4 4 4
4 5 0 8 2 4 7 7 6 2 9 6 5 4 7 10 13 13 19 22 20 18 18 15 13 11 9 9 7 7 11 11 10 9 6 6 7 6 6 5 6 5 4 5
8 5 3 3 8 12 7 10 4 2 1 5 5 4 1 9 17 21 19 20 20 20 17 15 13 10 9 8 8 7 9 10 8 7 6 6 6 5 5 5 4 4 4 4
9 2 5 7 2 3 3 5 13 7 6 1 2 3 1 1 6 12 14 15 16 18 18 16 14 12 10 9 8 8 8 8 7 7 6 6 6 5 5 4 4 4 4 3
8 4 3 1 2 2 5 4 9 3 2 6 3 3 3 1 7 11 15 15 15 17 17 14 13 13 11 10 8 8 7 8 8 7 6 5 5 5 4 4 4 4 4 3
4 2 4 3 1 2 9 8 8 12 4 5 4 4 3 4 9 13 15 17 18 18 18 16 14 13 10 9 9 9 8 7 7 6 6 5 4 4 4 4 4 4 3 3
1 5 3 1 2 4 5 11 13 13 9 9 6 4 4 11 13 15 15 17 18 19 19 18 15 11 12 11 9 8 8 7 7 6 6 5 5 5 5 5 4 4 4 3
4 1 2 2 4 2 2 8 15 16 11 10 5 6 1 2 8 13 15 16 18 19 18 17 14 14 13 12 11 9 8 8 7 7 7 7 6 5 5 4 4 4 4 4
5 2 1 2 2 2 6 9 14 13 10 14 12 5 6 4 10 14 15 16 17 16 17 16 16 15 12 11 11 11 9 8 8 8 6 6 6 5 5 5 5 5 5 4
3 2 2 1 2 6 1 2 3 13 6 8 1 3 4 2 2 6 11 15 15 16 16 15 13 12 10 10 9 8 8 9 8 7 7 7 7 7 6 5 6 6 5 6
2 2 1 3 4 4 2 3 4 8 10 9 5 3 3 5 4 5 12 15 16 17 15 13 12 12 11 11 9 9 8 8 8 8 8 8 7 6 6 7 7 6 6 6
2 4 2 2 4 3 1 3 2 1 4 10 9 8 8 9 4 2 14 14 13 13 13 13 11 9 10 9 10 9 8 8 8 8 8 6 7 8 8 7 6 6 6 7
2 0 1 2 4 4 2 2 2 5 2 1 5 6 11 5 2 4 8 13 12 12 13 11 12 11 11 10 9 8 8 10 8 5 5 5 6 7 7 6 6 6 6 6
2 2 2 2 3 2 4 3 4 2 1 1 3 4 9 3 1 1 8 11 12 12 12 11 10 9 8 9 9 7 9 4 5 6 7 7 6 6 5 7 6 6 6 6
3 3 1 6 2 1 4 2 1 1 1 1 1 4 7 6 1 5 7 10 10 12 9 7 9 8 7 7 7 7 6 6 6 6 6 7 5 6 6 7 7 6 7 7
5 4 4 3 3 10 10 6 6 4 3 2 3 5 9 7 5 5 7 7 8 7 7 5 7 7 7 7 7 9 4 4 5 7 7 5 6 7 7 6 6 6 6 6
1 8 4 6 10 7 12 11 7 8 4 1 1 3 7 4 4 4 5 5 5 6 5 6 7 7 8 7 8 7 6 5 6 7 5 7 6 7 7 8 7 7 8 8
9 9 8 8 7 2 3 0 6 11 10 8 6 4 3 5 7 6 6 5 6 7 5 5 6 5 6 6 7 5 6 8 7 7 6 7 7 6 6 6 6 13 15 12
Wind_Direction
199 171 209 187 220 196 296 246 214 130 82 148 182 142 165 174 181 156 157 159 154 127 95 76 60 49 81 65 84 81 103 110 116 120 115 99 88 82 74 61 55 51 45 47
206 218 212 219 199 196 215 277 305 1 25 137 148 149 149 198 180 173 166 166 160 140 123 99 83 69 64 72 57 70 90 95 90 88 97 104 106 84 81 72 59 52 49 42
222 303 163 209 185 193 198 201 249 241 148 67 133 146 176 209 177 178 172 173 163 148 135 114 94 82 81 65 73 76 77 83 90 92 99 107 109 101 83 68 62 50 54 51
228 243 201 183 202 191 208 191 225 207 181 173 255 179 207 190 193 198 184 186 167 139 120 123 106 102 93 87 91 89 88 89 87 105 108 101 98 100 88 80 76 64 52 56
175 194 193 200 208 199 230 163 180 202 210 138 200 188 158 168 208 201 192 183 174 141 133 165 115 125 96 99 96 97 92 89 93 100 102 101 101 104 104 96 85 76 62 52
233 202 212 182 193 218 136 166 170 189 166 226 170 207 183 189 214 186 185 180 167 148 155 149 137 133 120 119 105 99 95 87 84 90 92 95 107 113 109 101 92 79 71 59
212 224 262 184 133 213 230 172 163 201 182 296 164 184 267 207 206 186 180 175 170 166 164 156 152 144 132 127 117 109 101 89 83 85 90 95 98 98 102 95 85 85 73 63
226 204 206 202 209 182 205 207 189 237 175 135 109 200 226 32 149 189 170 169 174 170 173 160 163 153 145 144 121 125 111 111 98 102 93 88 89 92 86 82 89 83 78 72
213 243 159 241 195 151 185 212 204 81 19 136 175 218 230 123 145 163 167 169 175 173 174 157 157 158 154 149 137 134 123 109 116 105 96 101 100 100 99 96 87 80 77 83
188 243 139 189 214 232 203 140 178 221 163 194 200 229 222 195 181 174 176 180 175 170 169 162 156 159 153 128 133 133 121 120 117 112 118 111 106 102 104 99 93 93 98 99
215 247 97 169 210 200 174 192 222 76 340 199 167 216 210 207 192 187 186 182 175 170 164 158 154 158 144 144 149 131 120 122 123 125 125 121 115 112 104 103 102 100 104 108
198 194 210 211 11 300 304 213 201 202 199 43 324 131 57 292 210 184 178 181 173 167 163 159 157 153 158 156 150 144 139 139 139 139 136 130 125 126 117 113 119 133 137 122
168 207 197 200 229 210 236 194 210 163 64 196 175 142 9 162 167 173 168 166 160 161 159 158 160 166 171 163 163 156 161 152 150 148 145 144 137 133 132 144 153 166 158 153
313 212 264 227 330 329 207 210 211 205 208 157 235 188 240 188 183 177 166 165 166 168 167 167 172 174 168 164 170 173 168 166 156 156 157 158 158 158 165 174 181 181 178 183
4 219 204 281 276 292 280 206 193 204 222 212 158 205 168 197 192 188 174 169 170 173 175 178 176 170 171 172 177 180 177 170 164 163 174 182 172 176 186 194 189 194 201 196
346 33 45 247 261 293 257 234 206 213 200 231 173 228 33 51 159 173 183 175 176 176 179 178 173 174 179 180 183 181 179 177 174 183 193 182 184 191 199 202 206 212 217 224
340 317 222 192 282 132 268 217 204 214 228 208 207 193 164 188 191 188 184 186 184 182 179 177 177 181 181 183 178 185 181 173 188 195 188 191 195 203 210 210 214 225 231 236
309 341 344 335 234 203 76 335 282 216 236 215 180 205 168 130 157 170 186 185 184 180 181 181 178 179 179 173 177 167 173 180 189 196 196 201 201 212 213 219 224 228 235 242
325 247 159 252 242 328 160 208 179 187 231 197 199 159 121 124 145 221 199 191 185 182 179 180 177 178 166 168 167 170 177 181 194 203 210 209 206 216 217 225 228 229 237 245
360 5 273 193 254 245 74 174 179 274 245 184 179 169 160 160 200 132 185 186 178 173 170 166 164 150 153 168 167 173 180 188 209 213 217 207 205 216 224 230 230 227 230 244
240 63 230 179 266 275 276 113 333 188 80 99 180 168 170 199 338 348 175 175 173 166 160 148 156 165 176 160 162 180 182 212 214 203 209 212 216 219 225 222 216 218 229 242
267 210 198 137 263 266 142 90 210 2 36 69 184 182 188 216 351 52 162 159 157 154 154 164 160 166 156 159 169 182 210 206 202 204 208 212 209 214 211 213 216 221 230 242
268 220 285 218 251 68 209 271 204 204 58 322 218 197 196 200 174 159 161 158 160 161 151 155 160 146 160 169 181 194 218 192 193 191 211 214 212 216 216 214 221 224 225 239
235 192 247 300 204 245 244 227 228 202 218 223 243 202 185 188 170 168 160 160 158 155 150 132 135 163 184 189 199 221 178 176 175 210 217 210 214 221 219 223 227 230 230 235
206 158 200 270 279 265 249 231 231 217 221 182 162 202 204 171 163 159 155 149 148 150 148 155 166 185 208 188 214 214 198 176 211 220 216 224 224 219 228 225 225 226 234 229
191 187 184 216 220 200 242 254 197 194 200 199 171 157 180 179 172 161 176 172 163 163 150 170 192 205 222 214 226 203 194 194 211 231 229 229 226 224 229 237 244 236 240 235